Location: Iesi
(43.5167°N, 13.2333°E)
Time: 02:55:05
(UTC+00:00)

Meteor 1-14 Rocket - Pass Details

Date: 08 August 2020
Orbit: 833 x 919 km, 81.3° (Epoch: 27 September)

Event Time Altitude Azimuth Distance (km) Brightness Sun altitude
Exits shadow 20:46:47 46° 140° (SE) 1,191 4.5 -21.9°
Maximum altitude 20:48:09 56° 95° (E) 1,054 4.4 -22.1°
Drops below altitude 10° 20:53:56 10° 18° (NNE) 2,601 7.2 -22.7°
Sets 20:56:28 0° 15° (NNE) 3,556 8.0 -23.0°
